Location: Lafig�re
(44.4503°N, 4.0357°E)
Time: 12:12:49
(UTC+00:00)

Vanguard 2 - Pass Details

Date: 22 January 2021
Orbit: 552 x 2938 km, 32.9° (Epoch: 05 March)

Event Time Altitude Azimuth Distance (km) Brightness Sun altitude
Rises 20:19:51 0° 255° (WSW) 3,193 11.5 -39.0°
Reaches altitude 10° 20:22:23 10° 240° (WSW) 2,490 10.6 -39.5°
Enters shadow 20:23:57 17° 226° (SW) 2,192 10.1 -39.7°
